Weather History for KINL - June, 2013

Change the Weather History Date:

Friday, June 7, 2013

  Actual Average Record
Temperature  
Mean Temperature 51 °F 59 °F  
Max Temperature 65 °F 71 °F 95 °F (1988)
Min Temperature 36 °F 46 °F 31 °F (1983)
Degree Days  
Heating Degree Days 14 7  
Month to date heating degree days 107 55  
Since 1 June heating degree days 107 55  
Since 1 July heating degree days 10651 10112  
Cooling Degree Days 0 1  
Month to date cooling degree days 0 7  
Year to date cooling degree days 3 16  
Since 1 June cooling degree days 0 7  
Moisture  
Dew Point 43 °F    
Average Humidity 72    
Maximum Humidity 100    
Minimum Humidity 44    
Precipitation  
Precipitation 0.00 in 0.12 in 1.98 in (1908)
Month to date precipitation 0.01 0.81  
Year to date precipitation 12.39 7.34  
Snow  
Snow 0.00 in 0.00 in T in (1952)
Month to date snowfall 0.0 0.0  
Since 1 June snowfall 0.0 0.0  
Since 1 July snowfall 98.6 71.0  
Snow Depth 0.00 in    
Sea Level Pressure  
Sea Level Pressure 30.03 in    
Wind  
Wind Speed 2 mph (SE)    
Max Wind Speed 9 mph    
Max Gust Speed 13 mph    
Visibility 9 miles    
Events Fog    
T = Trace of Precipitation, MM = Missing Value Source: NWS Daily Summary

Daily Weather History Graph

Daily Weather History Graph

Search for Another Location

Airport or City:

Trip Planner

Search our weather history database for the weather conditions in past years. The results will help you decide how hot, cold, wet, or windy it might be!

Date:

Astronomy

Jun. 07, 2013 Rise Set
Actual Time 5:12 AM CDT 9:12 PM CDT
Civil Twilight 4:31 AM CDT 9:54 PM CDT
Nautical Twilight 3:33 AM CDT 10:52 PM CDT
Astronomical Twilight 1:56 AM CDT 12:31 AM CDT
Moon 4:42 AM CDT (6/7) 8:21 PM CDT (6/7)
Length of Visible Light 17h 23m
Length of Day
16h 00m
Waning Crescent, 1% of the Moon is Illuminated
Jun 7
Waning Crescent
Jun 8
New
Jun 16
First Quarter
Jun 23
Full
Jun 29
Last Quarter

Hourly Weather History & Observations

Time (CDT) Temp. Windchill Dew Point Humidity Pressure Visibility Wind Dir Wind Speed Gust Speed Precip Events Conditions
12:55 AM 39.9 °F - 39.9 °F 100% 30.07 in 10.0 mi Calm Calm - N/A   Clear
1:55 AM 39.0 °F - 37.9 °F 96% 30.07 in 10.0 mi Calm Calm - N/A   Clear
2:55 AM 37.9 °F - 37.0 °F 97% 30.06 in 10.0 mi Calm Calm - N/A   Clear
3:55 AM 37.0 °F - 36.0 °F 96% 30.05 in 10.0 mi Calm Calm - N/A   Clear
4:55 AM 36.0 °F - 35.1 °F 97% 30.06 in 9.0 mi Calm Calm - N/A   Clear
5:05 AM 35.6 °F - 35.6 °F 100% 30.03 in 1.5 mi Calm Calm - N/A   Clear
5:17 AM 35.6 °F - 35.6 °F 100% 30.03 in 0.5 mi Calm Calm - N/A Fog Fog
5:27 AM 37.4 °F - 35.6 °F 93% 30.03 in 2.0 mi Calm Calm - N/A   Clear
5:35 AM 35.6 °F - 35.6 °F 100% 30.03 in 7.0 mi Calm Calm - N/A   Clear
5:55 AM 37.9 °F - 37.0 °F 97% 30.06 in 9.0 mi Calm Calm - N/A   Clear
6:55 AM 45.0 °F 43.5 °F 44.1 °F 97% 30.07 in 10.0 mi SE 3.5 mph - N/A   Mostly Cloudy
7:55 AM 51.1 °F - 48.0 °F 89% 30.07 in 10.0 mi Calm Calm - N/A   Overcast
8:55 AM 54.0 °F - 48.9 °F 83% 30.07 in 10.0 mi Calm Calm - N/A   Overcast
9:55 AM 57.0 °F - 48.0 °F 72% 30.07 in 10.0 mi Calm Calm - N/A   Overcast
10:55 AM 57.9 °F - 48.0 °F 70% 30.06 in 10.0 mi Calm Calm - N/A   Overcast
11:55 AM 57.9 °F - 48.9 °F 72% 30.05 in 10.0 mi Calm Calm - N/A   Overcast
12:55 PM 60.1 °F - 48.0 °F 64% 30.04 in 10.0 mi Calm Calm - N/A   Overcast
1:55 PM 59.0 °F - 46.9 °F 64% 30.03 in 10.0 mi South 3.5 mph - N/A   Overcast
2:55 PM 61.0 °F - 46.9 °F 60% 30.02 in 10.0 mi SE 3.5 mph - N/A   Overcast
3:55 PM 64.0 °F - 45.0 °F 50% 30.00 in 10.0 mi SE 4.6 mph - N/A   Overcast
4:55 PM 64.0 °F - 43.0 °F 46% 29.99 in 10.0 mi SSE 5.8 mph - N/A   Overcast
5:55 PM 63.0 °F - 44.1 °F 50% 29.98 in 10.0 mi SE 3.5 mph - N/A   Overcast
6:55 PM 62.1 °F - 44.1 °F 52% 29.97 in 10.0 mi SSE 4.6 mph - N/A   Overcast
7:55 PM 61.0 °F - 45.0 °F 56% 29.96 in 10.0 mi SSE 3.5 mph - N/A   Overcast
8:55 PM 57.0 °F - 48.0 °F 72% 29.96 in 10.0 mi East 3.5 mph - N/A   Clear
9:55 PM 51.1 °F - 45.0 °F 80% 29.96 in 10.0 mi East 4.6 mph - N/A   Clear
10:55 PM 45.0 °F - 42.1 °F 90% 29.97 in 10.0 mi Calm Calm - N/A   Scattered Clouds
11:55 PM 43.0 °F - 42.1 °F 97% 29.95 in 10.0 mi Calm Calm - N/A   Scattered Clouds